Time,TemperatureF,DewpointF,PressureIn,WindDirection,WindDirectionDegrees,WindSpeedMPH,WindSpeedGustMPH,Humidity,HourlyPrecipIn,Conditions,Clouds,dailyrainin,SoftwareType,DateUTC
2013-11-20 00:00:00,23.0,18.0,30.49,NNW,337,3.0,19.0,83,0.00,,,0.00,Rainwise IP-100,2013-11-20 05:00:00,
2013-11-20 00:01:00,23.0,18.0,30.49,North,360,6.0,19.0,83,0.00,,,0.00,Rainwise IP-100,2013-11-20 05:01:00,
2013-11-20 00:02:00,23.0,18.0,30.49,NW,315,8.0,19.0,83,0.00,,,0.00,Rainwise IP-100,2013-11-20 05:02:00,
2013-11-20 00:07:00,23.0,18.0,30.49,North,360,9.0,12.0,86,0.00,,,0.00,Rainwise IP-100,2013-11-20 05:07:00,
2013-11-20 00:12:00,23.0,21.0,30.49,NNW,337,6.0,10.0,88,0.00,,,0.00,Rainwise IP-100,2013-11-20 05:12:00,
2013-11-20 00:17:00,23.0,21.0,30.49,NNW,337,10.0,12.0,89,0.00,,,0.00,Rainwise IP-100,2013-11-20 05:17:00,
2013-11-20 00:22:00,23.0,21.0,30.49,NNW,337,9.0,13.0,90,0.00,,,0.00,Rainwise IP-100,2013-11-20 05:22:00,
2013-11-20 00:27:00,23.0,21.0,30.49,NNW,337,7.0,13.0,90,0.00,,,0.00,Rainwise IP-100,2013-11-20 05:27:00,
2013-11-20 00:32:00,23.0,21.0,30.50,NNW,337,9.0,12.0,90,0.00,,,0.00,Rainwise IP-100,2013-11-20 05:32:00,
2013-11-20 00:37:00,22.0,21.0,30.50,NNW,337,11.0,13.0,91,0.00,,,0.00,Rainwise IP-100,2013-11-20 05:37:00,
2013-11-20 00:42:00,22.0,21.0,30.51,NW,315,10.0,16.0,92,0.00,,,0.00,Rainwise IP-100,2013-11-20 05:42:00,
2013-11-20 00:47:00,22.0,21.0,30.51,NNW,337,8.0,13.0,91,0.00,,,0.00,Rainwise IP-100,2013-11-20 05:47:00,
2013-11-20 00:52:00,23.0,21.0,30.50,NNW,337,7.0,17.0,89,0.00,,,0.00,Rainwise IP-100,2013-11-20 05:52:00,
2013-11-20 00:57:00,22.0,21.0,30.50,NNW,337,8.0,13.0,91,0.00,,,0.00,Rainwise IP-100,2013-11-20 05:57:00,
2013-11-20 01:02:00,22.0,21.0,30.51,North,360,8.0,12.0,91,0.00,,,0.00,Rainwise IP-100,2013-11-20 06:02:00,
2013-11-20 01:07:00,22.0,21.0,30.51,North,360,7.0,18.0,91,0.00,,,0.00,Rainwise IP-100,2013-11-20 06:07:00,
2013-11-20 01:12:00,22.0,21.0,30.52,North,360,7.0,18.0,89,0.00,,,0.00,Rainwise IP-100,2013-11-20 06:12:00,
2013-11-20 01:17:00,22.0,21.0,30.52,North,360,7.0,12.0,89,0.00,,,0.00,Rainwise IP-100,2013-11-20 06:17:00,
2013-11-20 01:22:00,22.0,21.0,30.52,North,360,1.0,10.0,88,0.00,,,0.00,Rainwise IP-100,2013-11-20 06:22:00,
2013-11-20 01:27:00,22.0,18.0,30.52,NNW,337,7.0,12.0,87,0.00,,,0.00,Rainwise IP-100,2013-11-20 06:27:00,
2013-11-20 01:32:00,22.0,18.0,30.52,NNW,337,9.0,10.0,85,0.00,,,0.00,Rainwise IP-100,2013-11-20 06:32:00,
2013-11-20 01:37:00,22.0,18.0,30.52,NNE,22,8.0,11.0,85,0.00,,,0.00,Rainwise IP-100,2013-11-20 06:37:00,
2013-11-20 01:42:00,23.0,18.0,30.53,North,360,6.0,13.0,85,0.00,,,0.00,Rainwise IP-100,2013-11-20 06:42:00,
2013-11-20 01:47:00,22.0,18.0,30.53,NNW,337,8.0,14.0,84,0.00,,,0.00,Rainwise IP-100,2013-11-20 06:47:00,
2013-11-20 01:52:00,23.0,18.0,30.53,NNW,337,18.0,18.0,84,0.00,,,0.00,Rainwise IP-100,2013-11-20 06:52:00,
2013-11-20 01:57:00,23.0,18.0,30.53,North,360,7.0,20.0,84,0.00,,,0.00,Rainwise IP-100,2013-11-20 06:57:00,
2013-11-20 02:02:00,23.0,18.0,30.53,NNE,22,7.0,12.0,82,0.00,,,0.00,Rainwise IP-100,2013-11-20 07:02:00,
2013-11-20 02:07:00,23.0,18.0,30.53,NNW,337,6.0,15.0,83,0.00,,,0.00,Rainwise IP-100,2013-11-20 07:07:00,
2013-11-20 02:12:00,23.0,18.0,30.55,North,360,7.0,13.0,82,0.00,,,0.00,Rainwise IP-100,2013-11-20 07:12:00,
2013-11-20 02:17:00,23.0,18.0,30.55,NNW,337,5.0,15.0,80,0.00,,,0.00,Rainwise IP-100,2013-11-20 07:17:00,
2013-11-20 02:22:00,23.0,18.0,30.55,North,360,10.0,14.0,80,0.00,,,0.00,Rainwise IP-100,2013-11-20 07:22:00,
2013-11-20 02:27:00,23.0,16.0,30.55,NNW,337,7.0,13.0,78,0.00,,,0.00,Rainwise IP-100,2013-11-20 07:27:00,
2013-11-20 02:32:00,23.0,16.0,30.55,NNW,337,10.0,17.0,78,0.00,,,0.00,Rainwise IP-100,2013-11-20 07:32:00,
2013-11-20 02:37:00,23.0,16.0,30.55,NNW,337,9.0,19.0,78,0.00,,,0.00,Rainwise IP-100,2013-11-20 07:37:00,
2013-11-20 02:42:00,23.0,16.0,30.55,North,360,7.0,15.0,78,0.00,,,0.00,Rainwise IP-100,2013-11-20 07:42:00,
2013-11-20 02:47:00,22.0,16.0,30.55,North,360,11.0,13.0,78,0.00,,,0.00,Rainwise IP-100,2013-11-20 07:47:00,
2013-11-20 02:52:00,22.0,16.0,30.55,North,360,7.0,16.0,79,0.00,,,0.00,Rainwise IP-100,2013-11-20 07:52:00,
2013-11-20 02:57:00,22.0,16.0,30.55,North,360,3.0,13.0,79,0.00,,,0.00,Rainwise IP-100,2013-11-20 07:57:00,
2013-11-20 03:02:00,22.0,16.0,30.56,NW,315,8.0,15.0,79,0.00,,,0.00,Rainwise IP-100,2013-11-20 08:02:00,
2013-11-20 03:07:00,22.0,18.0,30.56,North,360,4.0,9.0,80,0.00,,,0.00,Rainwise IP-100,2013-11-20 08:07:00,
2013-11-20 03:12:00,22.0,18.0,30.56,NNE,22,3.0,9.0,81,0.00,,,0.00,Rainwise IP-100,2013-11-20 08:12:00,
2013-11-20 03:17:00,22.0,18.0,30.56,NE,45,3.0,6.0,81,0.00,,,0.00,Rainwise IP-100,2013-11-20 08:17:00,
2013-11-20 03:22:00,22.0,18.0,30.57,NE,45,2.0,6.0,81,0.00,,,0.00,Rainwise IP-100,2013-11-20 08:22:00,
2013-11-20 03:27:00,22.0,18.0,30.57,NE,45,2.0,6.0,80,0.00,,,0.00,Rainwise IP-100,2013-11-20 08:27:00,
2013-11-20 03:32:00,21.0,16.0,30.57,NNE,22,0.0,2.0,81,0.00,,,0.00,Rainwise IP-100,2013-11-20 08:32:00,
2013-11-20 03:37:00,21.0,16.0,30.57,NNE,22,0.0,2.0,81,0.00,,,0.00,Rainwise IP-100,2013-11-20 08:37:00,
2013-11-20 03:42:00,21.0,16.0,30.57,NNE,22,0.0,0.0,82,0.00,,,0.00,Rainwise IP-100,2013-11-20 08:42:00,
2013-11-20 03:47:00,21.0,16.0,30.57,NNE,22,0.0,0.0,84,0.00,,,0.00,Rainwise IP-100,2013-11-20 08:47:00,
2013-11-20 03:52:00,21.0,16.0,30.57,NNE,22,0.0,0.0,83,0.00,,,0.00,Rainwise IP-100,2013-11-20 08:52:00,
2013-11-20 03:57:00,20.0,16.0,30.58,NNE,22,0.0,1.0,82,0.00,,,0.00,Rainwise IP-100,2013-11-20 08:57:00,
2013-11-20 04:02:00,20.0,16.0,30.59,NNE,22,0.0,2.0,82,0.00,,,0.00,Rainwise IP-100,2013-11-20 09:02:00,
2013-11-20 04:07:00,20.0,16.0,30.59,NNE,22,0.0,3.0,84,0.00,,,0.00,Rainwise IP-100,2013-11-20 09:07:00,
2013-11-20 04:12:00,20.0,16.0,30.60,NNE,22,2.0,2.0,83,0.00,,,0.00,Rainwise IP-100,2013-11-20 09:12:00,
2013-11-20 04:17:00,20.0,16.0,30.60,NNE,22,0.0,3.0,82,0.00,,,0.00,Rainwise IP-100,2013-11-20 09:17:00,
2013-11-20 04:22:00,20.0,16.0,30.60,NNE,22,0.0,0.0,82,0.00,,,0.00,Rainwise IP-100,2013-11-20 09:22:00,
2013-11-20 04:27:00,20.0,16.0,30.60,NNE,22,0.0,2.0,84,0.00,,,0.00,Rainwise IP-100,2013-11-20 09:27:00,
2013-11-20 04:32:00,20.0,16.0,30.60,NE,45,2.0,3.0,85,0.00,,,0.00,Rainwise IP-100,2013-11-20 09:32:00,
2013-11-20 04:37:00,20.0,16.0,30.60,NNE,22,1.0,6.0,83,0.00,,,0.00,Rainwise IP-100,2013-11-20 09:37:00,
2013-11-20 04:42:00,20.0,16.0,30.61,NE,45,5.0,5.0,83,0.00,,,0.00,Rainwise IP-100,2013-11-20 09:42:00,
2013-11-20 04:47:00,20.0,16.0,30.61,NE,45,4.0,7.0,82,0.00,,,0.00,Rainwise IP-100,2013-11-20 09:47:00,
2013-11-20 04:52:00,20.0,16.0,30.61,North,360,6.0,11.0,81,0.00,,,0.00,Rainwise IP-100,2013-11-20 09:52:00,
2013-11-20 04:57:00,20.0,16.0,30.61,North,360,6.0,8.0,82,0.00,,,0.00,Rainwise IP-100,2013-11-20 09:57:00,
2013-11-20 05:02:00,20.0,16.0,30.62,North,360,6.0,12.0,81,0.00,,,0.00,Rainwise IP-100,2013-11-20 10:02:00,
2013-11-20 05:07:00,20.0,16.0,30.62,North,360,6.0,8.0,81,0.00,,,0.00,Rainwise IP-100,2013-11-20 10:07:00,
2013-11-20 05:12:00,21.0,16.0,30.61,North,360,7.0,10.0,80,0.00,,,0.00,Rainwise IP-100,2013-11-20 10:12:00,
2013-11-20 05:17:00,21.0,16.0,30.61,North,360,5.0,10.0,80,0.00,,,0.00,Rainwise IP-100,2013-11-20 10:17:00,
2013-11-20 05:22:00,21.0,16.0,30.62,North,360,5.0,8.0,79,0.00,,,0.00,Rainwise IP-100,2013-11-20 10:22:00,
2013-11-20 05:27:00,21.0,16.0,30.62,NW,315,4.0,9.0,80,0.00,,,0.00,Rainwise IP-100,2013-11-20 10:27:00,
2013-11-20 05:32:00,21.0,16.0,30.63,North,360,6.0,12.0,78,0.00,,,0.00,Rainwise IP-100,2013-11-20 10:32:00,
2013-11-20 05:37:00,21.0,16.0,30.63,NNE,22,7.0,12.0,78,0.00,,,0.00,Rainwise IP-100,2013-11-20 10:37:00,
2013-11-20 05:42:00,21.0,16.0,30.63,NNE,22,4.0,10.0,78,0.00,,,0.00,Rainwise IP-100,2013-11-20 10:42:00,
2013-11-20 05:47:00,21.0,16.0,30.63,North,360,5.0,10.0,78,0.00,,,0.00,Rainwise IP-100,2013-11-20 10:47:00,
2013-11-20 05:52:00,21.0,16.0,30.63,NW,315,9.0,12.0,78,0.00,,,0.00,Rainwise IP-100,2013-11-20 10:52:00,
2013-11-20 05:57:00,21.0,16.0,30.63,North,360,7.0,12.0,78,0.00,,,0.00,Rainwise IP-100,2013-11-20 10:57:00,
2013-11-20 06:02:00,21.0,16.0,30.63,NW,315,6.0,11.0,78,0.00,,,0.00,Rainwise IP-100,2013-11-20 11:02:00,
2013-11-20 06:07:00,20.0,16.0,30.63,NNW,337,9.0,9.0,79,0.00,,,0.00,Rainwise IP-100,2013-11-20 11:07:00,
2013-11-20 06:12:00,20.0,16.0,30.65,North,360,4.0,9.0,80,0.00,,,0.00,Rainwise IP-100,2013-11-20 11:12:00,
2013-11-20 06:17:00,20.0,16.0,30.65,NW,315,6.0,9.0,80,0.00,,,0.00,Rainwise IP-100,2013-11-20 11:17:00,
2013-11-20 06:22:00,20.0,16.0,30.65,NNW,337,3.0,8.0,80,0.00,,,0.00,Rainwise IP-100,2013-11-20 11:22:00,
2013-11-20 06:27:00,20.0,16.0,30.65,NNW,337,6.0,8.0,82,0.00,,,0.00,Rainwise IP-100,2013-11-20 11:27:00,
2013-11-20 06:32:00,20.0,16.0,30.65,NNW,337,7.0,7.0,84,0.00,,,0.00,Rainwise IP-100,2013-11-20 11:32:00,
2013-11-20 06:37:00,19.0,16.0,30.65,NW,315,6.0,9.0,85,0.00,,,0.00,Rainwise IP-100,2013-11-20 11:37:00,
2013-11-20 06:42:00,19.0,16.0,30.66,NNW,337,1.0,7.0,85,0.00,,,0.00,Rainwise IP-100,2013-11-20 11:42:00,
2013-11-20 06:47:00,19.0,16.0,30.66,North,360,3.0,7.0,86,0.00,,,0.00,Rainwise IP-100,2013-11-20 11:47:00,
2013-11-20 06:52:00,19.0,16.0,30.66,NNW,337,8.0,8.0,86,0.00,,,0.00,Rainwise IP-100,2013-11-20 11:52:00,
2013-11-20 06:57:00,19.0,16.0,30.66,NW,315,4.0,9.0,85,0.00,,,0.00,Rainwise IP-100,2013-11-20 11:57:00,
2013-11-20 07:02:00,20.0,16.0,30.66,NNW,337,2.0,6.0,85,0.00,,,0.00,Rainwise IP-100,2013-11-20 12:02:00,
2013-11-20 07:07:00,19.0,16.0,30.66,NNW,337,6.0,9.0,85,0.00,,,0.00,Rainwise IP-100,2013-11-20 12:07:00,
2013-11-20 07:12:00,19.0,16.0,30.66,NNW,337,1.0,6.0,86,0.00,,,0.00,Rainwise IP-100,2013-11-20 12:12:00,
2013-11-20 07:17:00,19.0,16.0,30.67,NNW,337,0.0,4.0,86,0.00,,,0.00,Rainwise IP-100,2013-11-20 12:17:00,
2013-11-20 07:22:00,19.0,18.0,30.67,NNW,337,0.0,0.0,87,0.00,,,0.00,Rainwise IP-100,2013-11-20 12:22:00,
2013-11-20 07:27:00,19.0,18.0,30.67,NNE,22,0.0,0.0,88,0.00,,,0.00,Rainwise IP-100,2013-11-20 12:27:00,
2013-11-20 07:32:00,19.0,16.0,30.68,NE,45,0.0,0.0,86,0.00,,,0.00,Rainwise IP-100,2013-11-20 12:32:00,
2013-11-20 07:37:00,19.0,18.0,30.68,NE,45,0.0,2.0,88,0.00,,,0.00,Rainwise IP-100,2013-11-20 12:37:00,
2013-11-20 07:42:00,19.0,18.0,30.68,NE,45,0.0,0.0,87,0.00,,,0.00,Rainwise IP-100,2013-11-20 12:42:00,
2013-11-20 07:47:00,19.0,18.0,30.68,NNW,337,4.0,4.0,87,0.00,,,0.00,Rainwise IP-100,2013-11-20 12:47:00,
2013-11-20 07:52:00,20.0,16.0,30.68,NNW,337,2.0,5.0,85,0.00,,,0.00,Rainwise IP-100,2013-11-20 12:52:00,
2013-11-20 07:57:00,20.0,16.0,30.68,NNW,337,6.0,6.0,84,0.00,,,0.00,Rainwise IP-100,2013-11-20 12:57:00,
2013-11-20 08:02:00,21.0,16.0,30.68,North,360,4.0,7.0,82,0.00,,,0.00,Rainwise IP-100,2013-11-20 13:02:00,
2013-11-20 08:07:00,22.0,18.0,30.68,NNW,337,2.0,7.0,80,0.00,,,0.00,Rainwise IP-100,2013-11-20 13:07:00,
2013-11-20 08:12:00,22.0,18.0,30.69,SSE,157,6.0,6.0,80,0.00,,,0.00,Rainwise IP-100,2013-11-20 13:12:00,
2013-11-20 08:17:00,22.0,18.0,30.69,SSW,202,0.0,7.0,80,0.00,,,0.00,Rainwise IP-100,2013-11-20 13:17:00,
2013-11-20 08:22:00,23.0,18.0,30.69,SSW,202,0.0,2.0,81,0.00,,,0.00,Rainwise IP-100,2013-11-20 13:22:00,
2013-11-20 08:27:00,23.0,16.0,30.69,SW,225,3.0,4.0,77,0.00,,,0.00,Rainwise IP-100,2013-11-20 13:27:00,
2013-11-20 08:32:00,23.0,16.0,30.69,SW,225,3.0,6.0,77,0.00,,,0.00,Rainwise IP-100,2013-11-20 13:32:00,
2013-11-20 08:37:00,23.0,16.0,30.70,SSW,202,5.0,7.0,78,0.00,,,0.00,Rainwise IP-100,2013-11-20 13:37:00,
2013-11-20 08:42:00,23.0,16.0,30.70,SSW,202,7.0,7.0,77,0.00,,,0.00,Rainwise IP-100,2013-11-20 13:42:00,
2013-11-20 08:47:00,23.0,16.0,30.70,SSW,202,2.0,8.0,76,0.00,,,0.00,Rainwise IP-100,2013-11-20 13:47:00,
2013-11-20 08:52:00,24.0,18.0,30.70,SW,225,2.0,6.0,75,0.00,,,0.00,Rainwise IP-100,2013-11-20 13:52:00,
2013-11-20 08:57:00,24.0,18.0,30.70,NNW,337,2.0,5.0,74,0.00,,,0.00,Rainwise IP-100,2013-11-20 13:57:00,
2013-11-20 09:02:00,25.0,18.0,30.69,NNW,337,2.0,4.0,72,0.00,,,0.00,Rainwise IP-100,2013-11-20 14:02:00,
2013-11-20 09:07:00,26.0,21.0,30.69,NNW,337,0.0,4.0,75,0.00,,,0.00,Rainwise IP-100,2013-11-20 14:07:00,
2013-11-20 09:12:00,26.0,18.0,30.70,NW,315,3.0,7.0,71,0.00,,,0.00,Rainwise IP-100,2013-11-20 14:12:00,
2013-11-20 09:17:00,26.0,18.0,30.70,NW,315,6.0,6.0,71,0.00,,,0.00,Rainwise IP-100,2013-11-20 14:17:00,
2013-11-20 09:22:00,26.0,18.0,30.70,NE,45,7.0,9.0,70,0.00,,,0.00,Rainwise IP-100,2013-11-20 14:22:00,
2013-11-20 09:27:00,26.0,18.0,30.70,North,360,2.0,9.0,69,0.00,,,0.00,Rainwise IP-100,2013-11-20 14:27:00,
2013-11-20 09:32:00,26.0,18.0,30.71,NNW,337,7.0,11.0,70,0.00,,,0.00,Rainwise IP-100,2013-11-20 14:32:00,
2013-11-20 09:37:00,26.0,18.0,30.71,NW,315,6.0,11.0,70,0.00,,,0.00,Rainwise IP-100,2013-11-20 14:37:00,
2013-11-20 09:42:00,26.0,18.0,30.71,North,360,8.0,8.0,72,0.00,,,0.00,Rainwise IP-100,2013-11-20 14:42:00,
2013-11-20 09:47:00,26.0,18.0,30.71,North,360,3.0,9.0,71,0.00,,,0.00,Rainwise IP-100,2013-11-20 14:47:00,
2013-11-20 09:52:00,26.0,18.0,30.71,NW,315,6.0,10.0,70,0.00,,,0.00,Rainwise IP-100,2013-11-20 14:52:00,
2013-11-20 09:57:00,26.0,18.0,30.71,NW,315,6.0,10.0,68,0.00,,,0.00,Rainwise IP-100,2013-11-20 14:57:00,
2013-11-20 10:02:00,28.0,18.0,30.70,NNE,22,7.0,9.0,65,0.00,,,0.00,Rainwise IP-100,2013-11-20 15:02:00,
2013-11-20 10:07:00,27.0,18.0,30.70,NW,315,1.0,9.0,67,0.00,,,0.00,Rainwise IP-100,2013-11-20 15:07:00,
2013-11-20 10:12:00,28.0,16.0,30.70,NE,45,3.0,6.0,62,0.00,,,0.00,Rainwise IP-100,2013-11-20 15:12:00,
2013-11-20 10:17:00,28.0,16.0,30.70,NNE,22,1.0,8.0,61,0.00,,,0.00,Rainwise IP-100,2013-11-20 15:17:00,
2013-11-20 10:22:00,28.0,18.0,30.70,East,90,7.0,7.0,64,0.00,,,0.00,Rainwise IP-100,2013-11-20 15:22:00,
2013-11-20 10:27:00,27.0,16.0,30.71,ENE,67,7.0,9.0,62,0.00,,,0.00,Rainwise IP-100,2013-11-20 15:27:00,
2013-11-20 10:32:00,27.0,18.0,30.71,East,90,7.0,9.0,64,0.00,,,0.00,Rainwise IP-100,2013-11-20 15:32:00,
2013-11-20 10:37:00,29.0,18.0,30.71,NE,45,5.0,9.0,62,0.00,,,0.00,Rainwise IP-100,2013-11-20 15:37:00,
2013-11-20 10:42:00,28.0,16.0,30.71,ENE,67,4.0,7.0,62,0.00,,,0.00,Rainwise IP-100,2013-11-20 15:42:00,
2013-11-20 10:47:00,29.0,18.0,30.71,NE,45,5.0,8.0,62,0.00,,,0.00,Rainwise IP-100,2013-11-20 15:47:00,
2013-11-20 10:52:00,29.0,18.0,30.70,NNE,22,7.0,9.0,61,0.00,,,0.00,Rainwise IP-100,2013-11-20 15:52:00,
2013-11-20 10:57:00,28.0,16.0,30.70,NE,45,6.0,9.0,60,0.00,,,0.00,Rainwise IP-100,2013-11-20 15:57:00,
2013-11-20 11:02:00,29.0,18.0,30.70,NE,45,6.0,9.0,61,0.00,,,0.00,Rainwise IP-100,2013-11-20 16:02:00,
2013-11-20 11:07:00,29.0,18.0,30.70,ENE,67,6.0,7.0,60,0.00,,,0.00,Rainwise IP-100,2013-11-20 16:07:00,
2013-11-20 11:12:00,29.0,18.0,30.70,North,360,3.0,9.0,60,0.00,,,0.00,Rainwise IP-100,2013-11-20 16:12:00,
2013-11-20 11:17:00,30.0,18.0,30.70,ENE,67,5.0,8.0,61,0.00,,,0.00,Rainwise IP-100,2013-11-20 16:17:00,
2013-11-20 11:22:00,31.0,18.0,30.69,North,360,6.0,8.0,58,0.00,,,0.00,Rainwise IP-100,2013-11-20 16:22:00,
2013-11-20 11:27:00,31.0,18.0,30.69,NE,45,2.0,7.0,58,0.00,,,0.00,Rainwise IP-100,2013-11-20 16:27:00,
2013-11-20 11:32:00,30.0,21.0,30.69,ENE,67,5.0,7.0,62,0.00,,,0.00,Rainwise IP-100,2013-11-20 16:32:00,
2013-11-20 11:37:00,29.0,16.0,30.69,East,90,7.0,7.0,59,0.00,,,0.00,Rainwise IP-100,2013-11-20 16:37:00,
2013-11-20 11:42:00,30.0,21.0,30.69,East,90,5.0,8.0,62,0.00,,,0.00,Rainwise IP-100,2013-11-20 16:42:00,
2013-11-20 11:47:00,30.0,18.0,30.69,ESE,112,4.0,6.0,60,0.00,,,0.00,Rainwise IP-100,2013-11-20 16:47:00,
2013-11-20 11:52:00,30.0,18.0,30.69,ENE,67,3.0,7.0,59,0.00,,,0.00,Rainwise IP-100,2013-11-20 16:52:00,
2013-11-20 11:57:00,31.0,18.0,30.69,East,90,3.0,6.0,59,0.00,,,0.00,Rainwise IP-100,2013-11-20 16:57:00,
2013-11-20 12:03:00,32.0,18.0,30.68,East,90,5.0,6.0,55,0.00,,,0.00,Rainwise IP-100,2013-11-20 17:03:00,
2013-11-20 12:08:00,31.0,18.0,30.68,NW,315,5.0,9.0,59,0.00,,,0.00,Rainwise IP-100,2013-11-20 17:08:00,
2013-11-20 12:13:00,31.0,18.0,30.69,SE,135,2.0,6.0,59,0.00,,,0.00,Rainwise IP-100,2013-11-20 17:13:00,
2013-11-20 12:18:00,31.0,18.0,30.69,East,90,1.0,6.0,56,0.00,,,0.00,Rainwise IP-100,2013-11-20 17:18:00,
2013-11-20 12:23:00,31.0,18.0,30.69,ENE,67,5.0,6.0,57,0.00,,,0.00,Rainwise IP-100,2013-11-20 17:23:00,
2013-11-20 12:28:00,32.0,18.0,30.69,NE,45,5.0,6.0,56,0.00,,,0.00,Rainwise IP-100,2013-11-20 17:28:00,
2013-11-20 12:33:00,32.0,18.0,30.69,NW,315,4.0,6.0,56,0.00,,,0.00,Rainwise IP-100,2013-11-20 17:33:00,
2013-11-20 12:38:00,33.0,18.0,30.69,North,360,5.0,6.0,54,0.00,,,0.00,Rainwise IP-100,2013-11-20 17:38:00,
2013-11-20 12:43:00,33.0,18.0,30.68,North,360,2.0,7.0,55,0.00,,,0.00,Rainwise IP-100,2013-11-20 17:43:00,
2013-11-20 12:48:00,33.0,18.0,30.68,NE,45,1.0,3.0,54,0.00,,,0.00,Rainwise IP-100,2013-11-20 17:48:00,
2013-11-20 12:53:00,33.0,21.0,30.68,WNW,292,0.0,6.0,56,0.00,,,0.00,Rainwise IP-100,2013-11-20 17:53:00,
2013-11-20 12:58:00,33.0,21.0,30.68,WNW,292,3.0,5.0,56,0.00,,,0.00,Rainwise IP-100,2013-11-20 17:58:00,
2013-11-20 13:03:00,32.0,18.0,30.68,NW,315,5.0,7.0,54,0.00,,,0.00,Rainwise IP-100,2013-11-20 18:03:00,
2013-11-20 13:08:00,32.0,18.0,30.68,North,360,4.0,9.0,57,0.00,,,0.00,Rainwise IP-100,2013-11-20 18:08:00,
2013-11-20 13:13:00,32.0,18.0,30.68,NNW,337,5.0,7.0,56,0.00,,,0.00,Rainwise IP-100,2013-11-20 18:13:00,
2013-11-20 13:18:00,32.0,18.0,30.68,NNW,337,2.0,6.0,57,0.00,,,0.00,Rainwise IP-100,2013-11-20 18:18:00,
2013-11-20 13:23:00,32.0,18.0,30.67,NW,315,5.0,6.0,57,0.00,,,0.00,Rainwise IP-100,2013-11-20 18:23:00,
2013-11-20 13:28:00,32.0,18.0,30.67,NW,315,5.0,7.0,55,0.00,,,0.00,Rainwise IP-100,2013-11-20 18:28:00,
2013-11-20 13:33:00,32.0,18.0,30.68,WSW,247,0.0,6.0,54,0.00,,,0.00,Rainwise IP-100,2013-11-20 18:33:00,
2013-11-20 13:38:00,32.0,18.0,30.68,NW,315,3.0,7.0,54,0.00,,,0.00,Rainwise IP-100,2013-11-20 18:38:00,
2013-11-20 13:43:00,33.0,18.0,30.67,NW,315,6.0,8.0,53,0.00,,,0.00,Rainwise IP-100,2013-11-20 18:43:00,
2013-11-20 13:48:00,33.0,18.0,30.67,NNW,337,6.0,6.0,53,0.00,,,0.00,Rainwise IP-100,2013-11-20 18:48:00,
2013-11-20 13:53:00,34.0,21.0,30.67,WSW,247,4.0,7.0,53,0.00,,,0.00,Rainwise IP-100,2013-11-20 18:53:00,
2013-11-20 13:58:00,35.0,18.0,30.67,NNE,22,3.0,6.0,51,0.00,,,0.00,Rainwise IP-100,2013-11-20 18:58:00,
2013-11-20 14:03:00,34.0,18.0,30.67,NW,315,5.0,7.0,51,0.00,,,0.00,Rainwise IP-100,2013-11-20 19:03:00,
2013-11-20 14:08:00,33.0,18.0,30.67,NNW,337,8.0,10.0,51,0.00,,,0.00,Rainwise IP-100,2013-11-20 19:08:00,
2013-11-20 14:13:00,34.0,18.0,30.67,NW,315,3.0,9.0,51,0.00,,,0.00,Rainwise IP-100,2013-11-20 19:13:00,
2013-11-20 14:18:00,33.0,16.0,30.67,ENE,67,7.0,7.0,49,0.00,,,0.00,Rainwise IP-100,2013-11-20 19:18:00,
2013-11-20 14:23:00,34.0,18.0,30.67,NE,45,7.0,7.0,48,0.00,,,0.00,Rainwise IP-100,2013-11-20 19:23:00,
2013-11-20 14:28:00,34.0,18.0,30.67,East,90,3.0,7.0,49,0.00,,,0.00,Rainwise IP-100,2013-11-20 19:28:00,
2013-11-20 14:33:00,35.0,16.0,30.67,NE,45,6.0,6.0,45,0.00,,,0.00,Rainwise IP-100,2013-11-20 19:33:00,
2013-11-20 14:38:00,34.0,16.0,30.67,NE,45,7.0,7.0,47,0.00,,,0.00,Rainwise IP-100,2013-11-20 19:38:00,
2013-11-20 14:43:00,35.0,16.0,30.67,NE,45,4.0,7.0,46,0.00,,,0.00,Rainwise IP-100,2013-11-20 19:43:00,
2013-11-20 14:48:00,36.0,16.0,30.67,North,360,1.0,6.0,45,0.00,,,0.00,Rainwise IP-100,2013-11-20 19:48:00,
2013-11-20 14:53:00,36.0,16.0,30.67,NE,45,2.0,5.0,44,0.00,,,0.00,Rainwise IP-100,2013-11-20 19:53:00,
2013-11-20 14:58:00,37.0,18.0,30.67,West,270,0.0,5.0,44,0.00,,,0.00,Rainwise IP-100,2013-11-20 19:58:00,
2013-11-20 15:03:00,36.0,16.0,30.67,East,90,2.0,3.0,44,0.00,,,0.00,Rainwise IP-100,2013-11-20 20:03:00,
2013-11-20 15:08:00,36.0,16.0,30.67,NE,45,1.0,4.0,44,0.00,,,0.00,Rainwise IP-100,2013-11-20 20:08:00,
2013-11-20 15:13:00,36.0,18.0,30.67,NNW,337,1.0,3.0,46,0.00,,,0.00,Rainwise IP-100,2013-11-20 20:13:00,
2013-11-20 15:18:00,36.0,16.0,30.67,NNW,337,0.0,2.0,44,0.00,,,0.00,Rainwise IP-100,2013-11-20 20:18:00,
2013-11-20 15:23:00,36.0,16.0,30.67,NE,45,3.0,5.0,44,0.00,,,0.00,Rainwise IP-100,2013-11-20 20:23:00,
2013-11-20 15:28:00,34.0,18.0,30.67,East,90,3.0,5.0,48,0.00,,,0.00,Rainwise IP-100,2013-11-20 20:28:00,
2013-11-20 15:33:00,35.0,18.0,30.67,East,90,1.0,3.0,48,0.00,,,0.00,Rainwise IP-100,2013-11-20 20:33:00,
2013-11-20 15:38:00,34.0,16.0,30.67,ENE,67,3.0,5.0,47,0.00,,,0.00,Rainwise IP-100,2013-11-20 20:38:00,
2013-11-20 15:43:00,34.0,16.0,30.69,ENE,67,2.0,3.0,47,0.00,,,0.00,Rainwise IP-100,2013-11-20 20:43:00,
2013-11-20 15:48:00,34.0,18.0,30.69,ENE,67,3.0,3.0,48,0.00,,,0.00,Rainwise IP-100,2013-11-20 20:48:00,
2013-11-20 15:53:00,34.0,18.0,30.68,ENE,67,2.0,3.0,50,0.00,,,0.00,Rainwise IP-100,2013-11-20 20:53:00,
2013-11-20 15:58:00,33.0,18.0,30.68,ENE,67,2.0,4.0,51,0.00,,,0.00,Rainwise IP-100,2013-11-20 20:58:00,
2013-11-20 16:03:00,32.0,16.0,30.69,ENE,67,3.0,5.0,52,0.00,,,0.00,Rainwise IP-100,2013-11-20 21:03:00,
2013-11-20 16:08:00,31.0,16.0,30.69,ENE,67,2.0,3.0,55,0.00,,,0.00,Rainwise IP-100,2013-11-20 21:08:00,
2013-11-20 16:13:00,31.0,18.0,30.69,ENE,67,1.0,3.0,57,0.00,,,0.00,Rainwise IP-100,2013-11-20 21:13:00,
2013-11-20 16:18:00,30.0,18.0,30.69,ENE,67,1.0,2.0,59,0.00,,,0.00,Rainwise IP-100,2013-11-20 21:18:00,
2013-11-20 16:23:00,29.0,16.0,30.70,ENE,67,1.0,1.0,58,0.00,,,0.00,Rainwise IP-100,2013-11-20 21:23:00,
2013-11-20 16:28:00,29.0,16.0,30.70,ENE,67,0.0,2.0,59,0.00,,,0.00,Rainwise IP-100,2013-11-20 21:28:00,
2013-11-20 16:33:00,28.0,16.0,30.70,ENE,67,0.0,0.0,59,0.00,,,0.00,Rainwise IP-100,2013-11-20 21:33:00,
2013-11-20 16:38:00,28.0,16.0,30.70,ENE,67,0.0,0.0,61,0.00,,,0.00,Rainwise IP-100,2013-11-20 21:38:00,
2013-11-20 16:43:00,27.0,16.0,30.71,ENE,67,0.0,0.0,61,0.00,,,0.00,Rainwise IP-100,2013-11-20 21:43:00,
2013-11-20 16:48:00,27.0,16.0,30.71,ENE,67,0.0,0.0,63,0.00,,,0.00,Rainwise IP-100,2013-11-20 21:48:00,
2013-11-20 16:53:00,27.0,16.0,30.71,ENE,67,0.0,2.0,63,0.00,,,0.00,Rainwise IP-100,2013-11-20 21:53:00,
2013-11-20 16:58:00,26.0,16.0,30.71,ENE,67,0.0,1.0,64,0.00,,,0.00,Rainwise IP-100,2013-11-20 21:58:00,
2013-11-20 17:03:00,26.0,16.0,30.71,ENE,67,0.0,0.0,67,0.00,,,0.00,Rainwise IP-100,2013-11-20 22:03:00,
2013-11-20 17:08:00,26.0,18.0,30.71,ENE,67,0.0,0.0,70,0.00,,,0.00,Rainwise IP-100,2013-11-20 22:08:00,
2013-11-20 17:13:00,27.0,21.0,30.71,ENE,67,1.0,1.0,70,0.00,,,0.00,Rainwise IP-100,2013-11-20 22:13:00,
2013-11-20 17:18:00,27.0,18.0,30.71,SE,135,5.0,5.0,67,0.00,,,0.00,Rainwise IP-100,2013-11-20 22:18:00,
2013-11-20 17:23:00,27.0,18.0,30.71,SE,135,3.0,5.0,65,0.00,,,0.00,Rainwise IP-100,2013-11-20 22:23:00,
2013-11-20 17:28:00,27.0,18.0,30.71,SE,135,1.0,4.0,67,0.00,,,0.00,Rainwise IP-100,2013-11-20 22:28:00,
2013-11-20 17:33:00,26.0,16.0,30.71,SE,135,0.0,2.0,67,0.00,,,0.00,Rainwise IP-100,2013-11-20 22:33:00,
2013-11-20 17:38:00,26.0,18.0,30.71,SE,135,1.0,2.0,69,0.00,,,0.00,Rainwise IP-100,2013-11-20 22:38:00,
2013-11-20 17:43:00,26.0,18.0,30.72,SE,135,4.0,6.0,72,0.00,,,0.00,Rainwise IP-100,2013-11-20 22:43:00,
2013-11-20 17:48:00,26.0,18.0,30.72,SE,135,4.0,5.0,69,0.00,,,0.00,Rainwise IP-100,2013-11-20 22:48:00,
2013-11-20 17:53:00,26.0,18.0,30.72,SE,135,4.0,5.0,70,0.00,,,0.00,Rainwise IP-100,2013-11-20 22:53:00,
2013-11-20 17:58:00,26.0,18.0,30.72,SE,135,3.0,4.0,72,0.00,,,0.00,Rainwise IP-100,2013-11-20 22:58:00,
2013-11-20 18:03:00,26.0,18.0,30.72,SE,135,3.0,4.0,70,0.00,,,0.00,Rainwise IP-100,2013-11-20 23:03:00,
2013-11-20 18:08:00,26.0,18.0,30.72,SE,135,1.0,4.0,72,0.00,,,0.00,Rainwise IP-100,2013-11-20 23:08:00,
2013-11-20 18:13:00,25.0,18.0,30.73,SE,135,0.0,2.0,72,0.00,,,0.00,Rainwise IP-100,2013-11-20 23:13:00,
2013-11-20 18:18:00,25.0,18.0,30.73,SE,135,4.0,4.0,69,0.00,,,0.00,Rainwise IP-100,2013-11-20 23:18:00,
2013-11-20 18:23:00,26.0,18.0,30.72,SE,135,1.0,4.0,68,0.00,,,0.00,Rainwise IP-100,2013-11-20 23:23:00,
2013-11-20 18:28:00,25.0,18.0,30.72,SE,135,2.0,2.0,69,0.00,,,0.00,Rainwise IP-100,2013-11-20 23:28:00,
2013-11-20 18:33:00,24.0,18.0,30.73,SE,135,3.0,3.0,76,0.00,,,0.00,Rainwise IP-100,2013-11-20 23:33:00,
2013-11-20 18:38:00,24.0,21.0,30.73,SE,135,4.0,5.0,83,0.00,,,0.00,Rainwise IP-100,2013-11-20 23:38:00,
2013-11-20 18:43:00,24.0,18.0,30.73,SE,135,2.0,4.0,80,0.00,,,0.00,Rainwise IP-100,2013-11-20 23:43:00,
2013-11-20 18:48:00,23.0,18.0,30.73,SE,135,2.0,2.0,82,0.00,,,0.00,Rainwise IP-100,2013-11-20 23:48:00,
2013-11-20 18:53:00,23.0,18.0,30.74,SE,135,2.0,3.0,82,0.00,,,0.00,Rainwise IP-100,2013-11-20 23:53:00,
2013-11-20 18:58:00,23.0,18.0,30.74,SE,135,1.0,2.0,83,0.00,,,0.00,Rainwise IP-100,2013-11-20 23:58:00,
2013-11-20 19:03:00,23.0,18.0,30.74,SE,135,1.0,2.0,83,0.00,,,0.00,Rainwise IP-100,2013-11-21 00:03:00,
2013-11-20 19:08:00,23.0,18.0,30.74,SE,135,0.0,2.0,84,0.00,,,0.00,Rainwise IP-100,2013-11-21 00:08:00,
2013-11-20 19:13:00,23.0,18.0,30.74,SE,135,2.0,2.0,84,0.00,,,0.00,Rainwise IP-100,2013-11-21 00:13:00,
2013-11-20 19:18:00,23.0,18.0,30.74,SE,135,3.0,4.0,83,0.00,,,0.00,Rainwise IP-100,2013-11-21 00:18:00,
2013-11-20 19:23:00,23.0,18.0,30.75,SE,135,3.0,4.0,84,0.00,,,0.00,Rainwise IP-100,2013-11-21 00:23:00,
2013-11-20 19:28:00,23.0,18.0,30.75,SSE,157,4.0,5.0,82,0.00,,,0.00,Rainwise IP-100,2013-11-21 00:28:00,
2013-11-20 19:33:00,23.0,18.0,30.75,SSE,157,2.0,5.0,80,0.00,,,0.00,Rainwise IP-100,2013-11-21 00:33:00,
2013-11-20 19:38:00,22.0,18.0,30.75,SSE,157,1.0,2.0,84,0.00,,,0.00,Rainwise IP-100,2013-11-21 00:38:00,
2013-11-20 19:43:00,22.0,18.0,30.76,SSE,157,3.0,3.0,84,0.00,,,0.00,Rainwise IP-100,2013-11-21 00:43:00,
2013-11-20 19:48:00,22.0,18.0,30.76,SSE,157,3.0,4.0,85,0.00,,,0.00,Rainwise IP-100,2013-11-21 00:48:00,
2013-11-20 19:53:00,22.0,18.0,30.76,SSE,157,0.0,3.0,86,0.00,,,0.00,Rainwise IP-100,2013-11-21 00:53:00,
2013-11-20 19:58:00,22.0,18.0,30.76,SSE,157,0.0,0.0,87,0.00,,,0.00,Rainwise IP-100,2013-11-21 00:58:00,
2013-11-20 20:03:00,21.0,18.0,30.76,SSE,157,1.0,2.0,88,0.00,,,0.00,Rainwise IP-100,2013-11-21 01:03:00,
2013-11-20 20:08:00,21.0,18.0,30.75,SSE,157,0.0,2.0,89,0.00,,,0.00,Rainwise IP-100,2013-11-21 01:08:00,
2013-11-20 20:13:00,21.0,18.0,30.76,SSE,157,0.0,1.0,88,0.00,,,0.00,Rainwise IP-100,2013-11-21 01:13:00,
2013-11-20 20:18:00,21.0,18.0,30.76,South,180,2.0,5.0,87,0.00,,,0.00,Rainwise IP-100,2013-11-21 01:18:00,
2013-11-20 20:23:00,22.0,18.0,30.76,South,180,2.0,3.0,87,0.00,,,0.00,Rainwise IP-100,2013-11-21 01:23:00,
2013-11-20 20:28:00,21.0,18.0,30.76,South,180,6.0,6.0,88,0.00,,,0.00,Rainwise IP-100,2013-11-21 01:28:00,
2013-11-20 20:33:00,21.0,16.0,30.76,SE,135,5.0,7.0,86,0.00,,,0.00,Rainwise IP-100,2013-11-21 01:33:00,
2013-11-20 20:38:00,21.0,18.0,30.77,SSE,157,4.0,5.0,88,0.00,,,0.00,Rainwise IP-100,2013-11-21 01:38:00,
2013-11-20 20:43:00,21.0,18.0,30.77,SSE,157,0.0,4.0,89,0.00,,,0.00,Rainwise IP-100,2013-11-21 01:43:00,
2013-11-20 20:48:00,20.0,18.0,30.77,SSE,157,1.0,1.0,90,0.00,,,0.00,Rainwise IP-100,2013-11-21 01:48:00,
2013-11-20 20:53:00,20.0,18.0,30.77,SSE,157,1.0,2.0,89,0.00,,,0.00,Rainwise IP-100,2013-11-21 01:53:00,
2013-11-20 20:58:00,20.0,18.0,30.77,SSE,157,1.0,2.0,89,0.00,,,0.00,Rainwise IP-100,2013-11-21 01:58:00,
2013-11-20 21:03:00,20.0,18.0,30.77,SSE,157,0.0,1.0,89,0.00,,,0.00,Rainwise IP-100,2013-11-21 02:03:00,
2013-11-20 21:08:00,20.0,18.0,30.77,SSE,157,2.0,2.0,89,0.00,,,0.00,Rainwise IP-100,2013-11-21 02:08:00,
2013-11-20 21:13:00,20.0,18.0,30.77,SSE,157,0.0,3.0,91,0.00,,,0.00,Rainwise IP-100,2013-11-21 02:13:00,
2013-11-20 21:18:00,20.0,18.0,30.77,SSW,202,0.0,5.0,93,0.00,,,0.00,Rainwise IP-100,2013-11-21 02:18:00,
2013-11-20 21:23:00,20.0,18.0,30.77,SSW,202,2.0,2.0,92,0.00,,,0.00,Rainwise IP-100,2013-11-21 02:23:00,
2013-11-20 21:28:00,20.0,18.0,30.77,SSW,202,3.0,3.0,91,0.00,,,0.00,Rainwise IP-100,2013-11-21 02:28:00,
2013-11-20 21:33:00,20.0,18.0,30.77,SSW,202,1.0,6.0,91,0.00,,,0.00,Rainwise IP-100,2013-11-21 02:33:00,
2013-11-20 21:38:00,20.0,18.0,30.77,SSW,202,3.0,4.0,89,0.00,,,0.00,Rainwise IP-100,2013-11-21 02:38:00,
2013-11-20 21:43:00,21.0,18.0,30.77,South,180,5.0,6.0,87,0.00,,,0.00,Rainwise IP-100,2013-11-21 02:43:00,
2013-11-20 21:48:00,20.0,18.0,30.77,South,180,4.0,6.0,89,0.00,,,0.00,Rainwise IP-100,2013-11-21 02:48:00,
2013-11-20 21:53:00,20.0,18.0,30.77,SW,225,3.0,6.0,90,0.00,,,0.00,Rainwise IP-100,2013-11-21 02:53:00,
2013-11-20 21:58:00,20.0,18.0,30.77,SW,225,0.0,4.0,91,0.00,,,0.00,Rainwise IP-100,2013-11-21 02:58:00,
2013-11-20 22:03:00,19.0,18.0,30.77,SW,225,0.0,2.0,92,0.00,,,0.00,Rainwise IP-100,2013-11-21 03:03:00,
2013-11-20 22:08:00,19.0,18.0,30.77,SW,225,0.0,2.0,93,0.00,,,0.00,Rainwise IP-100,2013-11-21 03:08:00,
2013-11-20 22:13:00,19.0,18.0,30.77,SW,225,0.0,0.0,93,0.00,,,0.00,Rainwise IP-100,2013-11-21 03:13:00,
2013-11-20 22:18:00,19.0,18.0,30.77,SW,225,2.0,2.0,93,0.00,,,0.00,Rainwise IP-100,2013-11-21 03:18:00,
2013-11-20 22:23:00,19.0,18.0,30.77,SW,225,2.0,2.0,93,0.00,,,0.00,Rainwise IP-100,2013-11-21 03:23:00,
2013-11-20 22:28:00,19.0,18.0,30.77,SW,225,0.0,3.0,93,0.00,,,0.00,Rainwise IP-100,2013-11-21 03:28:00,
2013-11-20 22:33:00,19.0,18.0,30.77,SW,225,4.0,5.0,93,0.00,,,0.00,Rainwise IP-100,2013-11-21 03:33:00,
2013-11-20 22:38:00,19.0,18.0,30.77,SW,225,1.0,4.0,93,0.00,,,0.00,Rainwise IP-100,2013-11-21 03:38:00,
2013-11-20 22:43:00,19.0,18.0,30.77,South,180,3.0,6.0,92,0.00,,,0.00,Rainwise IP-100,2013-11-21 03:43:00,
2013-11-20 22:48:00,19.0,18.0,30.77,SSE,157,6.0,7.0,91,0.00,,,0.00,Rainwise IP-100,2013-11-21 03:48:00,
2013-11-20 22:53:00,19.0,18.0,30.77,SSE,157,6.0,7.0,92,0.00,,,0.00,Rainwise IP-100,2013-11-21 03:53:00,
2013-11-20 22:58:00,19.0,18.0,30.77,SSE,157,4.0,6.0,91,0.00,,,0.00,Rainwise IP-100,2013-11-21 03:58:00,
2013-11-20 23:03:00,19.0,18.0,30.77,WSW,247,3.0,5.0,92,0.00,,,0.00,Rainwise IP-100,2013-11-21 04:03:00,
2013-11-20 23:08:00,19.0,18.0,30.77,WSW,247,0.0,5.0,93,0.00,,,0.00,Rainwise IP-100,2013-11-21 04:08:00,
2013-11-20 23:13:00,19.0,18.0,30.77,SW,225,4.0,4.0,93,0.00,,,0.00,Rainwise IP-100,2013-11-21 04:13:00,
2013-11-20 23:18:00,18.0,16.0,30.77,SSW,202,0.0,4.0,93,0.00,,,0.00,Rainwise IP-100,2013-11-21 04:18:00,
2013-11-20 23:23:00,19.0,18.0,30.77,SSW,202,0.0,3.0,93,0.00,,,0.00,Rainwise IP-100,2013-11-21 04:23:00,
2013-11-20 23:28:00,19.0,18.0,30.77,SSW,202,3.0,5.0,93,0.00,,,0.00,Rainwise IP-100,2013-11-21 04:28:00,
2013-11-20 23:33:00,18.0,16.0,30.77,SW,225,3.0,4.0,93,0.00,,,0.00,Rainwise IP-100,2013-11-21 04:33:00,
2013-11-20 23:38:00,18.0,16.0,30.77,SW,225,2.0,5.0,93,0.00,,,0.00,Rainwise IP-100,2013-11-21 04:38:00,
2013-11-20 23:43:00,19.0,18.0,30.77,SSW,202,5.0,6.0,90,0.00,,,0.00,Rainwise IP-100,2013-11-21 04:43:00,
2013-11-20 23:48:00,19.0,18.0,30.77,SSW,202,1.0,5.0,92,0.00,,,0.00,Rainwise IP-100,2013-11-21 04:48:00,
2013-11-20 23:53:00,19.0,18.0,30.77,SSW,202,1.0,2.0,93,0.00,,,0.00,Rainwise IP-100,2013-11-21 04:53:00,
2013-11-20 23:58:00,18.0,16.0,30.77,SSW,202,3.0,4.0,93,0.00,,,0.00,Rainwise IP-100,2013-11-21 04:58:00,